Flag for Germany Weather past 2 weeks in Neuwied, Rhineland-Palatinate, Germany

Now
57 °F

Fog.


Feels Like: 57 °F
Forecast: 55 / 82 °F
Wind: 5 mph from North

Location: Buechel

Current Time: Jul 31, 2014 at 8:28:44 AM

Latest Report: Jul 31, 2014 at 7:20 AM


Visibility: 3 mi

Pressure: 30.04 "Hg

Humidity: 88%

Dew point: 54 °F

Location of NeuwiedLocation

Historic Weather in Neuwied — Graph

°F

Neuwied temperature yesterday

Maximum temperature yesterday: 68 °F (at 3:20 PM)
Minimum temperature yesterday: 59 °F (at 8:20 AM)
Average temperature yesterday: 63 °F

Past Weeks' High & Low Weather Summary

 TemperatureHumidityPressure
High86 °F (Jul 18, 4:20 PM)100% (Jul 22, 1:20 AM)30.21 "Hg (Jul 22, 1:20 AM)
Low55 °F (Jul 25, 5:20 AM)29% (Jul 18, 5:20 PM)29.80 "Hg (Jul 29, 6:20 PM)
Average68 °F70%29.98 "Hg
* Reported Jul 16 7:20 AM — Jul 31 7:20 AM, Neuwied, Weather by CustomWeather, © 2014

Note: Actual official high and low records may vary slightly from our data, if they occured in-between our weather recording intervals... More about our weather records

Advertising

Neuwied weather history for previous 24 hours

 ConditionsComfort  
Time TempWeatherWind HumidityBarometerVisibility
7:20 AM
Jul 31
57 °FFog.5 mph88%30.04 "Hg3 mi
6:20 AM55 °FFog.5 mph94%30.04 "Hg2 mi
5:55 AM55 °FFog.5 mph94%30.01 "Hg2 mi
5:20 AM55 °FPassing clouds.5 mph94%30.01 "Hg4 mi
4:20 AM55 °FPassing clouds.7 mph94%30.01 "Hg4 mi
3:20 AM55 °FCool.7 mph94%30.01 "Hg5 mi
2:20 AM57 °FCool.5 mph88%30.01 "HgN/A
1:20 AM57 °FCool.3 mph88%30.01 "HgN/A
12:20 AM59 °FCool.5 mph82%30.01 "HgN/A
11:20 PM
Jul 30
59 °FCool.5 mph82%30.01 "HgN/A
10:20 PM61 °FCool.3 mph77%30.01 "HgN/A
9:20 PM63 °FMild.7 mph73%29.98 "HgN/A
8:20 PM66 °FMild.6 mph68%29.98 "HgN/A
7:20 PM66 °FMild.7 mph64%29.95 "HgN/A
6:20 PM68 °FScattered clouds.9 mph60%29.95 "HgN/A
5:20 PM68 °FScattered clouds.9 mph56%29.95 "HgN/A
4:20 PM68 °FScattered clouds.9 mph60%29.95 "HgN/A
3:20 PM68 °FScattered clouds.10 mph60%29.95 "HgN/A
2:20 PM66 °FScattered clouds.12 mph68%29.92 "HgN/A
1:20 PM66 °FScattered clouds.13 mph68%29.92 "HgN/A
12:20 PM63 °FScattered clouds.12 mph83%29.92 "HgN/A
11:20 AM61 °FFog.14 mph88%29.92 "Hg3 mi
10:20 AM59 °FFog.10 mph94%29.89 "Hg2 mi
9:20 AM59 °FFog.10 mph100%29.89 "Hg1 mi
8:20 AM59 °FLight rain. Fog.10 mph100%29.86 "Hg1 mi
Weather by CustomWeather, © 2014

See weather overviewHow to use our weather pages